Tracking 23762 objects as of 22-Oct-2021
HD Live streaming from Space Station
objects crossing your sky now

LEMUR 2 OSCARLATOR

Track LEMUR 2 OSCARLATOR now!
10-day predictions
LEMUR 2 OSCARLATOR is classified as:


NORAD ID: 46299
Int'l Code: 2020-061AD
Perigee: 535.1 km
Apogee: 536.3 km
Inclination: 97.5 °
Period: 95.2 minutes
Semi major axis: 6906 km
RCS: Unknown
Launch date: September 3, 2020
Source: United States (US)
Launch site: FRENCH GUIANA (FRGUI)
aabbcc
Your satellite tracking list
Your tracking list is empty




NASA's NSSDC Master Catalog

Two Line Element Set (TLE):
1 46299U 20061AD  21294.46830613  .00003574  00000-0  20898-3 0  9997
2 46299  97.4794   5.6656 0000860  64.4231 295.7089 15.12502901 62378
Source of the keplerian elements: AFSPC